Location: Beetenbrück
(52.8113°N, 9.5946°E)
Time: 21:47:12
(UTC+00:00)

Cosmos 1934 Rocket - Pass Details

Date: 14 April 2026
Orbit: 936 x 999 km, 83.0° (Epoch: 12 May)

Event Time Altitude Azimuth Distance (km) Brightness Sun altitude
Exits shadow 21:26:34 35° 193° (SSW) 1,543 4.7 -22.9°
Maximum altitude 21:29:29 85° 280° (W) 991 4.0 -23.1°
Drops below altitude 10° 21:35:45 10° 10° (N) 2,723 7.0 -23.5°
Sets 21:38:15 0° 11° (N) 3,665 7.8 -23.7°
